Tracking 20942 objects as of 10-Jul-2020
HD Live streaming from Space Station
objects crossing your sky now

ONEWEB-0044

Track ONEWEB-0044 now!
10-day predictions
ONEWEB-0044 is classified as:


NORAD ID: 45150
Int'l Code: 2020-008V
Perigee: 576.5 km
Apogee: 604.0 km
Inclination: 87.6 °
Period: 96.3 minutes
Semi major axis: 6961 km
RCS: Unknown
Launch date: February 6, 2020
Source: United Kingdom (UK)
Launch site: TYURATAM MISSILE AND SPACE COMPLEX (TTMTR)
aabbcc
Your satellite tracking list
Your tracking list is empty




NASA's NSSDC Master Catalog

Two Line Element Set (TLE):
1 45150U 20008V   20191.91670139 -.00064135 +00000-0 -59452-2 0  9992
2 45150 087.5524 114.8719 0019772 098.8186 134.1848 14.94757409001779
Source of the keplerian elements: AFSPC